Regional Weather Roundup
Issued by NWS

Home | Current Version | Previous Version | Text Only | Print | Product List | Glossary On
Versions: 1 2 3 4 5 6 7 8 9 10 11 12 13 14 15 16 17 18 19 20 21 22 23 24 25 26 27 28 29 30 31 32 33 34 35 36 37 38 39 40 41 42 43 44 45 46 47 48 49 50
000
ASUS46 KSEW 061210
RWRWA

WASHINGTON REGIONAL WEATHER ROUNDUP
NATIONAL WEATHER SERVICE SEATTLE WA
400 AM PST SAT FEB 06 2016

NOTE:"FAIR" INDICATES FEW OR NO CLOUDS BELOW 12,000 FEET WITH NO
SIGNIFICANT WEATHER AND/OR OBSTRUCTIONS TO VISIBILITY.

WAZ505-507>509-061300-
SEATTLE, TACOMA, EVERETT, AND VICINITY

CITY           SKY/WX    TMP DP  RH WIND       PRES   REMARKS
EVERETT        MOCLDY    41  36  82 S10       30.31R
6HR MIN TEMP:  40; 6HR MAX TEMP:  46; 6HR PCP:  0.12;

BOEING FIELD   CLOUDY    45  40  82 SE8       30.34R
6HR MIN TEMP:  44; 6HR MAX TEMP:  49;

RENTON         CLOUDY    46  39  76 SE5       30.35R
6HR MIN TEMP:  44; 6HR MAX TEMP:  50;

SEATAC AIRPORT MOCLDY    43  39  86 S12G17    30.34R
6HR MIN TEMP:  42; 6HR MAX TEMP:  47;

JBLM-MCCHORD   CLOUDY    43  43 100 SW10      30.36R
6HR MIN TEMP:  39; 6HR MAX TEMP:  46; 6HR PCP:  0.21;

PUYALLUP       DRIZZLE   43  43 100 CALM      30.35R
BREMERTON      CLEAR     39  37  93 S13       30.35R
6HR MIN TEMP:  39; 6HR MAX TEMP:  43;

JBLM-FT LEWIS  LGT RAIN  43  43 100 MISG      30.36R
6HR MIN TEMP:  40; 6HR MAX TEMP:  46; 6HR PCP:  0.27;

TACOMA NARROWS PTCLDY    43  40  89 S9        30.35R
6HR MIN TEMP:  42; 6HR MAX TEMP:  46; 6HR PCP:  0.10;

$$

WAZ001-503-506-510-514-515-061300-
NORTH INTERIOR

CITY           SKY/WX    TMP DP  RH WIND       PRES   REMARKS
BELLINGHAM     MOCLDY    46  38  73 S6        30.27R
6HR MIN TEMP:  46; 6HR MAX TEMP:  47;

FRIDAY HARBOR  CLEAR     44  36  73 SW10G22   30.27R
6HR MIN TEMP:  43; 6HR MAX TEMP:  46;

EASTSOUND      PTCLDY    43  37  81 SW10      30.27R
PORT ANGELES   MOCLDY    41  37  86 W10       30.29R
6HR MIN TEMP:  39; 6HR MAX TEMP:  45; 6HR PCP:  0.02;

EDIZ HOOK      FAIR      44  38  78 W10       30.29R
6HR MIN TEMP:  43; 6HR MAX TEMP:  47;

PORT TOWNSEND  MOCLDY    34  34 100 CALM      30.32R
NAS WHIDBEY    MOCLDY    46  38  73 VRB6      30.35R
6HR MIN TEMP:  40; 6HR MAX TEMP:  47;

ARLINGTON      CLOUDY    43  36  75 SE9       30.33S
6HR MIN TEMP:  39; 6HR MAX TEMP:  45;

BURLINGTON     CLOUDY    45  41  87 S7        30.31R
$$

WAZ020-022-039-040-504-511-512-061300-
SOUTHWEST INTERIOR

CITY           SKY/WX    TMP DP  RH WIND       PRES   REMARKS
SHELTON        LGT RAIN  42  40  92 S6        30.33R FOG
6HR MIN TEMP:  39; 6HR MAX TEMP:  44; 6HR PCP:  0.20;

OLYMPIA        CLOUDY    41  40  96 S9        30.37R
6HR MIN TEMP:  40; 6HR MAX TEMP:  45; 6HR PCP:  0.22;

CHEHALIS       CLOUDY    41  41 100 SW5       30.38R
KELSO          MOCLDY    45  39  81 SE6       30.45R
6HR MIN TEMP:  43; 6HR MAX TEMP:  46;

VANCOUVER      CLOUDY    45  41  86 E3        30.43R
6HR MIN TEMP:  45; 6HR MAX TEMP:  48;

SCAPPOOSE, OR  MOCLDY    37  37 100 W3        30.43R
6HR MIN TEMP:  36; 6HR MAX TEMP:  43; 6HR PCP:  0.01;

PORTLAND, OR   CLOUDY    46  41  82 S7        30.44R
6HR MIN TEMP:  46; 6HR MAX TEMP:  48;

$$

WAZ021-516-517-061300-
WASHINGTON COAST

CITY           SKY/WX    TMP DP  RH WIND       PRES   REMARKS
FORKS          CLEAR     41  38  89 CALM      30.31R
6HR MIN TEMP:  41; 6HR MAX TEMP:  47; 6HR PCP:  0.01;

HOQUIAM        CLOUDY    45  38  76 SW9       30.36R
6HR MIN TEMP:  43; 6HR MAX TEMP:  46; 6HR PCP:  0.19;

ASTORIA, OR    PTCLDY    47  40  76 SW8       30.39R
6HR MIN TEMP:  47; 6HR MAX TEMP:  50; 6HR PCP: TRACE;

$$

WAZ019-023-024-040-518-519-061300-
CASCADE MOUNTAINS AND COLUMBIA GORGE

CITY           SKY/WX    TMP DP  RH WIND       PRES   REMARKS
STAMPEDE PASS  NOT AVBL
TROUTDALE, OR  CLOUDY    47  40  76 CALM      30.44R
6HR MIN TEMP:  47; 6HR MAX TEMP:  50;

THE DALLES, OR CLOUDY    46  35  65 W13       30.35S
6HR MIN TEMP:  43; 6HR MAX TEMP:  51;

$$

WAZ026-027-041>044-520-521-061300-
EAST SLOPES

CITY           SKY/WX    TMP DP  RH WIND       PRES   REMARKS
OMAK           CLEAR     36  29  75 S12       30.14R
6HR MIN TEMP:  28; 6HR MAX TEMP:  36;

WENATCHEE      PTCLDY    41  29  62 W8        30.21R
6HR MIN TEMP:  30; 6HR MAX TEMP:  44;

ELLENSBURG     PTCLDY    37  30  75 NW14      30.24R
6HR MIN TEMP:  28; 6HR MAX TEMP:  39;

YAKIMA         MOCLDY    42  27  55 N10       30.28R
6HR MIN TEMP:  36; 6HR MAX TEMP:  49;

$$

WAZ028-034-035-061300-
COLUMBIA BASIN

CITY           SKY/WX    TMP DP  RH WIND       PRES   REMARKS
EPHRATA        CLEAR     33  28  81 SW12      30.20R WCI  24
6HR MIN TEMP:  33; 6HR MAX TEMP:  39;

MOSES LAKE     CLEAR     39  30  70 SW10      30.22R
6HR MIN TEMP:  36; 6HR MAX TEMP:  41;

PASCO          PTCLDY    45  34  65 SW9       30.31R
6HR MIN TEMP:  43; 6HR MAX TEMP:  53; 6HR PCP: TRACE;

HERMISTON, OR  MOCLDY    41  33  73 S9        30.33R
6HR MIN TEMP:  40; 6HR MAX TEMP:  49;

$$

WAZ036>038-061300-
NORTHEAST WASHINGTON

CITY           SKY/WX    TMP DP  RH WIND       PRES   REMARKS
SPOKANE GEIGER PTCLDY    37  29  72 SW24G30   30.14R
6HR MIN TEMP:  37; 6HR MAX TEMP:  46; 6HR PCP:  0.02;

SPOKANE FELTS  CLEAR     42  29  59 W12G21    30.17R
6HR MIN TEMP:  42; 6HR MAX TEMP:  49; 6HR PCP: TRACE;

FAIRCHILD AFB  CLEAR     36  31  83 SW21G32   30.13R
6HR MIN TEMP:  36; 6HR MAX TEMP:  44; 6HR PCP:  0.03;

COEURDALENE,ID CLEAR     37  30  75 SW18      30.11F
6HR MIN TEMP:  37; 6HR MAX TEMP:  45; 6HR PCP:  0.01;

DEER PARK      PTCLDY    38  29  70 SW20      30.14R
6HR MIN TEMP:  35; 6HR MAX TEMP:  42; 6HR PCP:  0.03;

$$

WAZ029>033-061300-
SOUTHEAST WASHINGTON

CITY           SKY/WX    TMP DP  RH WIND       PRES   REMARKS
PULLMAN        PTCLDY    39  32  76 SW20G25   30.24S
6HR MIN TEMP:  39; 6HR MAX TEMP:  46; 6HR PCP:  0.02;

LEWISTON, ID   CLOUDY    48  33  56 W22G35    30.24S
6HR MIN TEMP:  45; 6HR MAX TEMP:  51;

WALLA WALLA    CLOUDY    46  34  62 S16       30.32R
6HR MIN TEMP:  45; 6HR MAX TEMP:  58; 6HR PCP: TRACE;

PENDLETON, OR  MOCLDY    41  33  73 SW8       30.31R
6HR MIN TEMP:  41; 6HR MAX TEMP:  54;

$$



USA.gov is the U.S. government's official web portal to all federal, state and local government web resources and services.